Regional Weather Roundup
Issued by NWS

Home | Current Version | Previous Version | Graphics & Text | Print | Product List | Glossary On
Versions: 1 2 3 4 5 6 7 8 9 10 11 12 13 14 15 16 17 18 19 20 21 22 23 24 25 26 27 28 29 30 31 32 33 34 35 36 37 38 39 40 41 42 43 44 45 46 47 48 49 50
000
ASUS45 KBOU 060907
RWRCO

WEATHER ROUNDUP FOR COLORADO
NATIONAL WEATHER SERVICE DENVER/BOULDER CO
200 AM MST SAT FEB 06 2016

NOTE: "FAIR" INDICATES FEW OR NO CLOUDS BELOW 12000 FEET WITH NO
SIGNIFICANT WEATHER AND/OR OBSTRUCTIONS TO VISIBILITY.

COZ001>005-013-030-031-061000-
...NORTHWEST COLORADO...

CITY           SKY/WX    TMP DP  RH WIND       PRES   REMARKS
CRAIG          CLOUDY   -10 -14  82 CALM      30.50S
HAYDEN         CLOUDY     3   0  85 SE9       30.47R WCI -11
MEEKER         CLOUDY     1  -4  79 CALM      30.49S
MOUNT WERNER   NOT AVBL
STEAMBOAT SPGS CLOUDY     8   5  87 CALM      30.47R
WALDEN         CLOUDY     1  -4  78 SE8       30.39S WCI -12
$$

COZ006>008-011-061000-
...WEST CENTRAL VALLEYS...

CITY           SKY/WX    TMP DP  RH WIND       PRES   REMARKS
GRAND JUNCTION CLOUDY     5   3  91 E5        30.58R WCI  -4
MONTROSE       CLOUDY     5  -1  76 SE10      30.56F WCI -10
EAGLE          CLOUDY     1   0  92 E3        30.57R
RIFLE          CLOUDY     4  -1  80 CALM      30.57S
DELTA          CLOUDY    13   9  82 E3        30.58S
NUCLA          CLOUDY    10   5  79 E6        30.56R WCI   1
$$

COZ017>023-064>068-061000-
...SOUTHWEST COLORADO...

CITY           SKY/WX    TMP DP  RH WIND       PRES   REMARKS
DURANGO        CLOUDY     6   1  80 CALM      30.45R
CORTEZ         CLOUDY     8   3  80 E5        30.49R WCI   0
PAGOSA SPRINGS CLOUDY     3  -1  83 CALM      30.42R
TELLURIDE      CLOUDY    11   2  68 SE9       30.43S WCI  -2
WOLF CREEK PAS CLOUDY    14   0  52 W13       30.39R WCI   0
$$

COZ009-010-012-014-032>034-037-058>063-061000-
...CENTRAL COLORADO...

CITY           SKY/WX    TMP DP  RH WIND       PRES   REMARKS
ASPEN          CLOUDY     2  -3  80 S6        30.44S WCI  -9
BUENA VISTA    CLOUDY    10  -1  62 CALM      30.35R
COPPER MTN     CLOUDY    12   5  73 W16       30.33S WCI  -4
BERTHOUD PASS  CLOUDY     1  -9  60 N16G25    30.27R WCI -18
COTTONWOOD PAS CLOUDY    23   3  42 NW5       30.31R WCI  17
GUNNISON       CLOUDY   -17 -26  63 CALM      30.55R
KREMMLING      CLOUDY   N/A N/A N/A CALM      30.51S
LEADVILLE      CLOUDY     5  -2  72 NE10      30.35S WCI -10
MONARCH PASS     N/A      3   0  85 MISG      30.40S
SALIDA         NOT AVBL
SUNLIGHT       CLOUDY    12   9  85 CALM        N/A
WILKERSON PASS CLOUDY    18   3  53 NW14G25   30.26S WCI   4
$$

COZ069>075-061000-
...SAN LUIS VALLEY/SANGRE DE CRISTO MOUNTAINS...

CITY           SKY/WX    TMP DP  RH WIND       PRES   REMARKS
ALAMOSA        CLOUDY    -4  -9  79 W7        30.41S WCI -18
LA VETA PASS   CLOUDY     9   0  66 MISG      30.25F
SAGUACHE       CLOUDY    14   1  57 NW14      30.41R WCI  -1
$$

COZ035-036-038>040-061000-
...NORTHERN COLORADO FRONT RANGE...

CITY           SKY/WX    TMP DP  RH WIND       PRES   REMARKS
DENVER INTL AP CLOUDY    23   6  48 S13       30.22S WCI  11
DMNS CITY PARK   N/A     25   5  41 SE6G13    30.23S WCI  18
AURORA         CLEAR     20   6  53 S9        30.23S WCI   9
FRONT RANGE AP NOT AVBL
ERIE MUNI ARPT CLOUDY     8   5  89 CALM      30.23S
BOULDER MUN AP CLOUDY    19  10  68 CALM      30.22R
CENTENNIAL     CLOUDY    16   3  56 S5        30.22F WCI   9
BROOMFIELD     CLOUDY    30   9  40 CALM      30.22R
FORT COLLINS   CLEAR     16  10  79 NE3       30.24S
LONGMONT       CLEAR      9   3  76 CALM      30.26R
$$

COZ041-046-047-076>085-087-088-061000-
...PIKES PEAK/PALMER DIVIDE AND SOUTHERN FOOTHILLS...

CITY           SKY/WX    TMP DP  RH WIND       PRES   REMARKS
COLO. SPRINGS  CLOUDY    11   3  70 N8        30.27F WCI  -1
A. F. ACADEMY  CLOUDY     5  -3  71 N10       30.24F WCI -10
SCHRIEVER AFB  FAIR      19   8  61 W7        30.27F WCI   9
ELLICOTT       NOT AVBL
FALCON         CLOUDY    15  -1  49 W8        30.25S WCI   3
FORT CARSON    CLOUDY    11   5  76 NW12      30.26S WCI  -3
LIMON          CLOUDY    -2  -6  83 N8        30.27S WCI -17
MONUMENT HILL  CLOUDY    21  -2  35 SW13      30.25R WCI   9
TRINIDAD       CLOUDY    18   9  68 SW14      30.29F WCI   4
$$

COZ042>045-048>051-090-091-061000-
...NORTHEAST COLORADO...

CITY           SKY/WX    TMP DP  RH WIND       PRES   REMARKS
GREELEY ARPT   CLOUDY     1  -2  85 NW3       30.26S
AKRON          CLOUDY    20   8  60 SW14      30.23F WCI   7
BURLINGTON     CLOUDY    14   4  64 W12       30.27F WCI   0
WRAY           CLOUDY    11   6  80 W7        30.27F WCI   0
STERLING       CLOUDY     7   3  85 S8        30.26S WCI  -6
HOLYOKE        CLOUDY    19  10  68 W13       30.24F WCI   7
FORT MORGAN    CLOUDY     5   0  79 W9        30.26S WCI -10
$$

COZ086-089-092>099-061000-
...SOUTHEAST COLORADO...

CITY           SKY/WX    TMP DP  RH WIND       PRES   REMARKS
PUEBLO         CLOUDY    10   6  84 NW5       30.31F WCI   2
LA JUNTA       CLOUDY    16  11  80 W7        30.33F WCI   6
LAMAR          CLOUDY    17  13  84 SW9       30.33S WCI   6
SPRINGFIELD      N/A     18  12  77 W9        30.32R WCI   7
$$



USA.gov is the U.S. government's official web portal to all federal, state and local government web resources and services.